Location: Aosta
(45.7330°N, 7.3330°E)
Time: 13:19:23
(UTC+02:00)

ISS - Visible Passes

Search period start: 11 May 2021 00:00
Search period end: 21 May 2021 00:00
Orbit: 417 x 422 km, 51.6° (Epoch: 11 May)

Date Brightness Start Highest point End Pass type
(mag) Time Alt. Az. Time Alt. Az. Time Alt. Az.
11 May -1.7 02:04:21 27° NNE 02:04:21 27° NNE 02:06:16 10° NE visible
11 May -1.8 03:37:24 10° WNW 03:40:25 29° N 03:43:26 10° ENE visible
11 May -3.2 05:14:18 10° WNW 05:17:39 62° NNE 05:21:01 10° ESE visible
12 May -0.9 01:18:16 14° NE 01:18:16 14° NE 01:18:51 10° ENE visible
12 May -1.7 02:51:12 19° NW 02:52:50 28° N 02:55:50 10° ENE visible
12 May -2.6 04:26:53 10° NW 04:30:10 46° NNE 04:33:26 10° E visible
13 May -1.8 02:05:02 29° NNW 02:05:15 29° N 02:08:17 10° ENE visible
13 May -2.2 03:39:28 10° NW 03:42:38 37° NNE 03:45:48 10° E visible
13 May -3.7 05:16:15 10° WNW 05:19:35 59° SSW 05:22:55 10° SE visible
14 May -1.7 01:18:39 27° NNE 01:18:39 27° NNE 01:20:47 10° NE visible
14 May -1.9 02:51:59 10° NW 02:55:05 32° N 02:58:09 10° ENE visible
14 May -3.8 04:28:47 10° WNW 04:32:11 90° E 04:35:34 10° ESE visible
14 May -3.7 22:49:58 10° SW 22:53:14 51° SE 22:55:36 17° ENE visible
15 May -2.4 00:26:57 10° W 00:30:07 39° NNW 00:33:20 10° NE visible
15 May -1.7 02:04:30 10° WNW 02:07:30 29° N 02:10:31 10° ENE visible
15 May -3.3 03:41:22 10° WNW 03:44:43 63° NNE 03:48:04 10° ESE visible
15 May -2.6 05:18:33 10° W 05:21:19 24° SW 05:24:05 10° SSE visible
15 May -3.1 22:02:50 10° SSW 22:05:53 32° SE 22:08:56 10° ENE visible
15 May -2.9 23:39:20 10° W 23:42:37 50° NNW 23:45:55 10° ENE visible
16 May -1.7 01:16:55 10° WNW 01:19:54 28° N 01:22:54 10° ENE visible
16 May -2.7 02:53:57 10° NW 02:57:14 46° NNE 03:00:30 10° E visible
16 May -3.3 04:30:51 10° WNW 04:34:01 37° SW 04:37:08 10° SSE visible
16 May -3.5 22:51:47 10° WSW 22:55:07 69° NNW 22:58:30 10° ENE visible
17 May -1.7 00:29:18 10° WNW 00:32:19 29° N 00:35:21 10° ENE visible
17 May -2.2 02:06:31 10° NW 02:09:42 37° NNE 02:12:52 10° E visible
17 May -3.8 03:43:19 10° WNW 03:46:39 59° SW 03:49:58 10° SE visible
17 May -3.9 22:04:19 10° WSW 22:07:41 81° SSE 22:11:03 10° ENE visible
17 May -1.9 23:41:40 10° WNW 23:44:45 33° N 23:47:51 10° NE visible
18 May -1.9 01:19:04 10° NW 01:22:08 32° N 01:22:58 28° NE visible
18 May -0.9 02:55:51 10° WNW 02:55:51 10° WNW 02:55:51 10° WNW visible
18 May -2.3 22:54:00 10° W 22:57:11 39° NNW 23:00:23 10° NE visible
19 May -1.7 00:31:33 10° WNW 00:34:33 29° N 00:36:33 17° ENE visible
19 May -1.4 02:08:25 10° WNW 02:09:29 18° NW 02:09:29 18° NW visible
19 May -2.7 22:06:23 10° W 22:09:40 49° NNW 22:12:57 10° ENE visible
19 May -1.7 23:43:59 10° WNW 23:46:58 28° N 23:49:57 10° ENE visible
20 May -2.2 01:21:00 10° NW 01:23:19 35° NNW 01:23:19 35° NNW visible
20 May -1.7 22:56:22 10° WNW 22:59:22 29° N 23:02:23 10° ENE visible
